Location: Sternwarte ZA, Rosenfeld-Brittheim
(48.2889°N, 8.6789°E)
Time: 07:18:39
(UTC+02:00)

ISS - Pass Details

Date: 25 May 2021
Orbit: 417 x 422 km, 51.6° (Epoch: 18 June)

Event Time Altitude Azimuth Distance (km) Brightness Sun altitude
Rises 22:11:01 0° 287° (WNW) 2,367 1.3 -8.5°
Reaches altitude 10° 22:13:09 10° 292° (WNW) 1,503 0.3 -8.8°
Maximum altitude 22:16:27 52° 10° (N) 528 -3.0 -9.1°
Drops below altitude 10° 22:19:46 10° 89° (E) 1,503 -1.3 -9.5°
Enters shadow 22:20:31 - 92° (E) 1,804 -1.0 -9.6°
